Location: ?????
(31.8092°N, 35.2590°E)
Time: 14:42:51
(UTC+00:00)

Ariane Rocket - Pass Details

Date: 20 June 2021
Orbit: 759 x 771 km, 98.7° (Epoch: 01 August)

Event Time Altitude Azimuth Distance (km) Brightness Sun altitude
Exits shadow 17:40:51 11° 149° (SSE) 2,235 4.8 -10.4°
Maximum altitude 17:45:36 53° 74° (ENE) 938 3.2 -11.2°
Drops below altitude 10° 17:50:34 10° 358° (N) 2,317 6.1 -12.1°
Sets 17:52:55 0° 354° (N) 3,247 7.0 -12.5°
